Hourly Data Report for September 05, 2017

All times are specified in Local Standard Time (LST). Add 1 hour to adjust for Daylight Saving Time where and when it is observed.

ST. PETERS
PRINCE EDWARD ISLAND

46°27'01.000" N
62°34'33.000" W
29.70 m
8300562
71310
ZSP

Download Data

Hourly Data (September 2017)
Hourly Data Report for September 5, 2017
Temp Definition
°C
Dew Point Temp Definition
°C
Rel Hum Definition
%
Wind Dir Definition
10's deg

Wind Spd Definition
km/h
Visibility Definition
km
Stn Press Definition
kPa
Hmdx Definition


Wind Chill Definition


Weather Definition


TIME
00:00 14.6 12.4 87 21 19   100.60     LegendNANA
01:00 14.9 12.3 85 21 19   100.58     LegendNANA
02:00 14.9 12.2 84 19 19   100.60     LegendNANA
03:00 15.3 12.3 82 19 18   100.61     LegendNANA
04:00 14.7 12.1 84 19 17   100.62     LegendNANA
05:00 13.5 11.7 89 17 14   100.65     LegendNANA
06:00 13.5 11.7 89 16 14   100.64     LegendNANA
07:00 14.7 12.2 85 17 13   100.66     LegendNANA
08:00 17.2 12.8 75 18 18   100.65     LegendNANA
09:00 18.9 13.8 72 18 23   100.63     LegendNANA
10:00 21.0 14.7 67 18 26   100.59 25   LegendNANA
11:00 23.1 14.3 58 20 33   100.64 27   LegendNANA
12:00 23.8 14.4 55 20 36   100.59 27   LegendNANA
13:00 24.5 12.9 49 22 35   100.65 27   LegendNANA
14:00 24.7 14.1 52 21 37   100.62 28   LegendNANA
15:00 24.9 15.3 55 21 36   100.64 29   LegendNANA
16:00 24.8 16.0 58 20 33   100.66 29   LegendNANA
17:00 24.4 16.5 61 19 25   100.69 29   LegendNANA
18:00 23.0 16.7 67 19 23   100.75 28   LegendNANA
19:00 21.4 16.2 72 17 17   100.80 26   LegendNANA
20:00 20.0 15.9 77 17 15   100.87 25   LegendNANA
21:00 19.5 16.4 82 18 17   100.91     LegendNANA
22:00 19.5 16.8 85 18 17   100.95     LegendNANA
23:00 19.6 17.0 85 18 23   100.95     LegendNANA

Notes on Data Quality.

Legend

  • E = Estimated
  • M = Missing
  • NA = Not Available
  • ‡ = Partner data that is not subject to review by the National Climate Archives
Date modified: